[[{"header":{"parameterUnit":"m.s-1","parameterCategory":1,"la1":30.2991,"la2":30.254,"lo1":-89.0895,"lo2":-89.0444,"dy":0.0017,"dx":0.0017,"nx":28,"ny":28,"refTime":"2024-10-13T03:00:00:Z","depth":0,"parameterNumber":2,"parameterNumberName":"U-component_of_WINDS"},"data":[0,0,0,0,0,0,0,0,0,0,0,0,0,0,0,0,0,0,0,0,0,0,0,0,0,0,0,0,0,0,0,0,0,0,0,0,0,0,0,0,0,0,0,0,0,0,0,0,0,0,0,0,0,0,0,0,0,0,3.801,3.8012,0,3.8182,3.8184,3.8185,3.8152,3.8149,3.8146,3.8143,3.8321,3.8329,3.8336,0,0,0,0,0,0,0,0,0,0,0,0,0,3.7659,3.7665,3.801,3.8012,3.8014,3.8181,3.8184,3.8186,3.8153,3.8149,3.8145,3.8142,3.8319,3.8328,3.8337,0,0,0,0,0,0,0,0,0,0,0,0,0,3.7819,3.7668,3.801,3.8018,3.802,3.8181,3.8184,3.8187,3.8154,3.8149,3.8144,3.814,3.8316,3.8327,3.8338,3.8502,0,0,3.8373,3.8378,0,0,0,0,0,0,0,0,3.781,3.7832,3.8015,3.8018,3.8021,3.8141,3.8125,3.8292,3.8155,3.8103,3.8143,3.8138,3.8265,3.828,3.8323,3.851,3.8518,3.8374,3.8381,3.8386,3.8389,0,0,0,0,0,0,0,3.7799,3.7824,3.8078,3.8017,3.8021,3.8015,3.8032,3.8157,3.8208,3.8107,3.8105,3.8126,3.8266,3.8312,3.8327,3.852,3.8374,3.8384,3.8391,3.8395,3.8853,3.8858,0,0,0,0,0,0,3.7785,3.7815,3.8072,3.8083,3.7902,3.8025,3.8044,3.8107,3.8207,3.8217,3.813,3.8124,3.8295,3.8313,3.8333,3.8532,3.8386,3.8397,3.8403,3.8848,3.8854,3.886,0,0,0,0,0,0,3.7777,3.7808,3.8066,3.7949,3.7981,3.8036,3.8106,3.8113,3.8159,3.8224,3.8233,3.8167,3.8292,3.8317,3.846,3.8538,3.8402,3.8412,3.8842,3.885,3.8857,3.8931,0,0,0,0,0,0,3.7767,3.7805,3.7866,3.795,3.7987,3.8189,3.8111,3.812,3.8178,3.8172,3.8261,3.8271,3.829,3.8444,3.8472,3.8551,3.8421,3.8835,3.8845,3.8855,3.8921,3.894,3.8956,0,0,0,0,0,3.7755,3.788,3.787,3.7901,3.8065,3.8193,3.8215,3.8233,3.8184,3.8247,3.829,3.8268,3.8525,3.8458,3.849,3.8574,3.883,3.8843,3.8854,3.8914,3.8936,3.8956,0,0,0,0,0,0,3.7804,3.7891,3.788,3.8037,3.8108,3.8187,3.8267,3.8256,3.8343,3.8333,3.8353,3.8374,3.852,3.8562,3.8486,3.8739,3.8671,3.869,3.8706,3.8728,3.8745,3.8731,3.8431,0,0,0,0,0,3.7833,3.7929,3.8,3.8132,3.8168,3.8212,3.8268,3.8276,3.8351,3.8381,3.8434,3.8508,3.8606,3.8669,3.8763,3.8928,3.8948,3.9002,3.9019,3.9033,3.9048,3.9141,3.9166,3.8899,3.8899,3.8899,0,0,3.7894,3.7954,3.8013,3.8143,3.8199,3.8299,3.8237,3.8345,3.842,3.8398,3.8536,3.8578,3.8663,3.8819,3.889,3.8858,3.9127,3.9048,3.9059,3.9067,3.9156,3.9181,3.9203,3.8907,3.8906,3.8905,0,0,3.8056,3.811,3.8226,3.8284,3.837,3.8399,3.8427,3.8509,3.8536,3.8676,3.8662,3.8753,3.892,3.8981,3.9034,3.9224,3.9208,3.9254,3.9343,3.9433,3.9454,3.9473,3.9541,3.9565,3.9269,3.927,3.927,0,3.812,3.8269,3.8287,3.8397,3.8456,3.8441,3.856,3.8616,3.8728,3.877,3.8732,3.8943,3.8999,3.917,3.9216,3.926,3.9294,3.9242,3.9449,3.9468,3.9486,3.9551,3.9577,3.9275,3.9274,3.9274,3.9273,0,3.8345,3.8449,3.8533,3.8641,3.871,3.8824,3.886,3.8928,3.8932,3.8965,3.9109,3.9177,3.9284,3.9326,3.933,3.9498,3.9476,3.9444,3.9376,3.9516,3.9578,3.9603,3.9282,3.928,3.9278,3.9277,0,0,3.8539,3.8659,3.8689,3.8739,3.8835,3.8916,3.9031,3.9136,3.9194,3.9273,3.937,3.9514,3.9486,3.9547,3.9559,3.9638,3.9785,3.9597,3.9599,3.9629,3.9976,3.9998,4.0026,3.9776,3.9781,3.9785,3.9969,0,3.8709,3.891,3.8931,3.9111,3.9208,3.9198,3.9298,3.9369,3.9405,3.9494,3.9534,3.9635,3.959,3.9627,3.9705,3.975,3.9855,3.9738,3.9868,3.9872,3.9845,4.0058,4.0082,4.0252,3.9993,3.9997,4.0,0,3.8933,3.9019,3.9209,3.9293,3.9335,3.9424,3.9523,3.9609,3.969,3.971,3.978,3.9782,3.9903,3.9832,3.9999,3.9919,3.9975,4.0006,4.0013,4.0024,3.9943,4.0075,4.0306,4.0331,4.0038,4.0035,4.0032,0,3.9056,3.9219,3.9354,3.9398,3.9499,3.9563,3.9608,3.9685,3.9747,3.9835,3.9876,3.9977,4.0033,4.0112,4.0142,4.0088,4.0309,4.024,4.033,4.0329,4.0375,4.0371,4.0617,4.0413,4.0412,4.0412,4.0411,0,3.9243,3.9359,3.9411,3.9493,3.9624,3.965,3.9779,3.9822,3.9891,3.9983,3.9982,4.0069,4.0105,4.0199,4.0224,4.0359,4.0384,4.0405,4.041,4.0405,4.0402,4.0439,4.0428,4.0419,4.0417,4.0416,4.0415,0,3.94,3.9439,3.9586,3.9671,3.9695,3.9788,3.9862,3.9943,3.9979,4.0096,4.0125,4.0182,4.0293,4.0332,4.0466,4.0483,4.064,4.0636,4.0612,4.0613,4.07,4.0691,4.0978,4.1017,4.0788,4.079,4.0792,0,3.9516,3.9605,3.9701,3.9762,3.981,3.9909,3.9973,4.0003,4.007,4.0171,4.0241,4.0351,4.044,4.0617,4.0671,4.0775,4.0773,4.0866,4.0788,4.078,4.0774,4.0767,4.0777,4.088,4.0882,4.0884,4.0886,0,3.9717,3.9733,3.9825,3.9925,4.0002,4.0082,4.016,4.0211,4.0253,4.0329,4.0442,4.0511,4.0649,4.0758,4.0865,4.0914,4.0908,4.0911,4.0937,4.0931,4.0913,4.0924,4.0651,4.0903,4.0901,4.09,4.0899,4.0898,3.9857,3.9937,4.0017,4.012,4.0182,4.0256,4.0337,4.0383,4.0477,4.0591,4.0604,4.0726,4.0808,4.095,4.1005,4.1102,4.1076,4.1114,4.1123,4.1132,4.1138,4.0899,4.1121,4.1121,4.1121,4.112,4.112,0,4.0058,4.011,4.0205,4.0314,4.0396,4.0384,4.047,4.054,4.0647,4.0724,4.0812,4.0943,4.105,4.1114,4.1222,4.1287,4.1288,4.1315,4.1309,4.1321,4.1155,4.1121,4.1313,4.1313,4.1313,4.1313,4.1313,4.1313,4.0172,4.0306,4.0332,4.0498,4.055,4.0668,4.0719,4.0787,4.0849,4.0995,4.1084,4.1125,4.1198,4.1311,4.141,4.1426,4.1466,4.1495,4.1509,4.1352,4.1332,4.1313,4.1282,4.1504,4.1504,4.1667,4.1669,4.167]},{"header":{"parameterUnit":"m.s-1","parameterCategory":1,"la1":30.2991,"la2":30.254,"lo1":-89.0895,"lo2":-89.0444,"dy":0.0017,"dx":0.0017,"nx":28,"ny":28,"refTime":"2024-10-13T03:00:00:Z","depth":0,"parameterNumber":3,"parameterNumberName":"V-component_of_WINDS"},"data":[0,0,0,0,0,0,0,0,0,0,0,0,0,0,0,0,0,0,0,0,0,0,0,0,0,0,0,0,0,0,0,0,0,0,0,0,0,0,0,0,0,0,0,0,0,0,0,0,0,0,0,0,0,0,0,0,0,0,-0.0965,-0.0965,0,-0.0959,-0.0959,-0.0959,-0.098,-0.0981,-0.0982,-0.0982,-0.0975,-0.0974,-0.0973,0,0,0,0,0,0,0,0,0,0,0,0,0,-0.0993,-0.0992,-0.0965,-0.0965,-0.0965,-0.0959,-0.0959,-0.0959,-0.098,-0.0981,-0.0982,-0.0982,-0.0975,-0.0974,-0.0973,0,0,0,0,0,0,0,0,0,0,0,0,0,-0.0983,-0.0992,-0.0965,-0.0975,-0.0976,-0.0959,-0.0959,-0.0959,-0.098,-0.0981,-0.0982,-0.0983,-0.0975,-0.0974,-0.0973,-0.0947,0,0,-0.0969,-0.0969,0,0,0,0,0,0,0,0,-0.0984,-0.0982,-0.0973,-0.0974,-0.0975,-0.0971,-0.0966,-0.0955,-0.098,-0.0978,-0.0982,-0.0983,-0.0973,-0.0972,-0.0969,-0.0946,-0.0946,-0.0969,-0.0969,-0.0968,-0.0968,0,0,0,0,0,0,0,-0.0984,-0.0982,-0.0963,-0.0973,-0.0974,-0.0979,-0.0979,-0.0964,-0.097,-0.0978,-0.098,-0.0979,-0.0973,-0.097,-0.0969,-0.0946,-0.0969,-0.0968,-0.0968,-0.0967,-0.09,-0.0899,0,0,0,0,0,0,-0.0984,-0.0983,-0.0963,-0.0962,-0.0982,-0.0978,-0.0977,-0.0972,-0.097,-0.0971,-0.0978,-0.098,-0.0971,-0.097,-0.0968,-0.0937,-0.0968,-0.0967,-0.0966,-0.0901,-0.09,-0.0899,0,0,0,0,0,0,-0.0984,-0.0982,-0.0963,-0.0973,-0.0971,-0.0976,-0.097,-0.0971,-0.0967,-0.097,-0.0971,-0.0974,-0.0972,-0.097,-0.0952,-0.0937,-0.0967,-0.0965,-0.0902,-0.0901,-0.0899,-0.0875,0,0,0,0,0,0,-0.0985,-0.0982,-0.0973,-0.0973,-0.097,-0.0947,-0.0969,-0.097,-0.0965,-0.0968,-0.0966,-0.0967,-0.0973,-0.0953,-0.0951,-0.0936,-0.0965,-0.0904,-0.0902,-0.09,-0.0877,-0.0872,-0.0869,0,0,0,0,0,-0.0986,-0.0966,-0.0972,-0.097,-0.0959,-0.0946,-0.0945,-0.0952,-0.0964,-0.0954,-0.0956,-0.0967,-0.0939,-0.0951,-0.0948,-0.0933,-0.0905,-0.0902,-0.09,-0.0879,-0.0873,-0.0869,0,0,0,0,0,0,-0.0964,-0.0966,-0.0973,-0.0952,-0.0949,-0.095,-0.0938,-0.0947,-0.094,-0.0942,-0.0951,-0.095,-0.093,-0.093,-0.0943,-0.0907,-0.0924,-0.0921,-0.0909,-0.0904,-0.09,-0.0901,-0.0964,0,0,0,0,0,-0.0957,-0.0947,-0.0949,-0.093,-0.0928,-0.0933,-0.0928,-0.0934,-0.0931,-0.0929,-0.093,-0.0926,-0.0916,-0.0909,-0.0901,-0.0876,-0.0876,-0.0864,-0.086,-0.0857,-0.0854,-0.0841,-0.0836,-0.0891,-0.0891,-0.0891,0,0,-0.0942,-0.0942,-0.0935,-0.0926,-0.0924,-0.0913,-0.0932,-0.092,-0.0912,-0.0927,-0.091,-0.091,-0.0906,-0.0884,-0.0875,-0.0883,-0.0839,-0.0854,-0.0851,-0.085,-0.0838,-0.0833,-0.0828,-0.0889,-0.0889,-0.089,0,0,-0.0909,-0.0908,-0.0893,-0.089,-0.0886,-0.089,-0.0886,-0.0885,-0.0885,-0.0868,-0.088,-0.0869,-0.0852,-0.0849,-0.0845,-0.0809,-0.0818,-0.0805,-0.0785,-0.0771,-0.0767,-0.0763,-0.0751,-0.0746,-0.0803,-0.0802,-0.0802,0,-0.0891,-0.0876,-0.0883,-0.087,-0.0866,-0.0879,-0.0863,-0.0859,-0.0853,-0.0849,-0.0859,-0.0837,-0.0835,-0.0813,-0.0804,-0.08,-0.0796,-0.0807,-0.0767,-0.0763,-0.076,-0.0748,-0.0743,-0.0801,-0.0801,-0.0801,-0.0801,0,-0.0854,-0.0842,-0.083,-0.0824,-0.0818,-0.0803,-0.0807,-0.08,-0.0805,-0.0807,-0.0789,-0.0787,-0.0778,-0.0772,-0.0778,-0.075,-0.0756,-0.0766,-0.0783,-0.0753,-0.0742,-0.0738,-0.0799,-0.0799,-0.08,-0.08,0,0,-0.081,-0.0806,-0.0802,-0.0799,-0.0795,-0.0786,-0.0771,-0.0762,-0.0756,-0.075,-0.0738,-0.0722,-0.0731,-0.0727,-0.0731,-0.072,-0.0691,-0.0731,-0.0731,-0.0724,-0.066,-0.0654,-0.0649,-0.0697,-0.0696,-0.0695,-0.0661,0,-0.0778,-0.0754,-0.0759,-0.0735,-0.0724,-0.0735,-0.0722,-0.0718,-0.0718,-0.0709,-0.0709,-0.0698,-0.0711,-0.0708,-0.0697,-0.0697,-0.0679,-0.0699,-0.0685,-0.0685,-0.0688,-0.0643,-0.0636,-0.0604,-0.0657,-0.0656,-0.0655,0,-0.0739,-0.0732,-0.0706,-0.0703,-0.0699,-0.0687,-0.0679,-0.067,-0.0665,-0.0666,-0.066,-0.0666,-0.0651,-0.0667,-0.0645,-0.0659,-0.0653,-0.0652,-0.0651,-0.0651,-0.0669,-0.0643,-0.0594,-0.059,-0.0649,-0.0649,-0.065,0,-0.071,-0.0694,-0.0676,-0.0673,-0.0669,-0.0661,-0.0658,-0.0654,-0.0648,-0.064,-0.0636,-0.0626,-0.0621,-0.0613,-0.0616,-0.0628,-0.0594,-0.061,-0.0595,-0.0595,-0.0589,-0.0589,-0.054,-0.0583,-0.0583,-0.0583,-0.0583,0,-0.0675,-0.0659,-0.0663,-0.0653,-0.0635,-0.064,-0.0622,-0.0621,-0.0617,-0.0606,-0.0614,-0.0603,-0.0608,-0.0597,-0.0599,-0.0581,-0.0578,-0.0579,-0.058,-0.0579,-0.0579,-0.0576,-0.0579,-0.0581,-0.0582,-0.0582,-0.0582,0,-0.0641,-0.0643,-0.0625,-0.0622,-0.0621,-0.0608,-0.0605,-0.0594,-0.0595,-0.058,-0.0577,-0.0578,-0.0565,-0.0567,-0.0554,-0.0555,-0.0532,-0.0535,-0.0534,-0.0536,-0.052,-0.0522,-0.0468,-0.0461,-0.0508,-0.0507,-0.0507,0,-0.062,-0.0608,-0.0603,-0.0596,-0.0593,-0.0582,-0.0576,-0.0579,-0.0572,-0.0565,-0.0555,-0.0543,-0.0534,-0.0514,-0.0513,-0.0502,-0.0505,-0.0487,-0.0504,-0.0503,-0.0506,-0.0507,-0.0506,-0.0484,-0.0484,-0.0483,-0.0483,0,-0.0581,-0.0582,-0.0573,-0.0564,-0.0556,-0.0548,-0.0542,-0.0535,-0.0538,-0.053,-0.0517,-0.051,-0.0496,-0.0484,-0.0473,-0.047,-0.0477,-0.0477,-0.0473,-0.0473,-0.0473,-0.0474,-0.0527,-0.0479,-0.0479,-0.048,-0.048,-0.048,-0.0553,-0.0543,-0.0538,-0.0527,-0.0522,-0.0515,-0.0505,-0.0504,-0.0494,-0.0483,-0.0485,-0.047,-0.0464,-0.0451,-0.0446,-0.0435,-0.0441,-0.0435,-0.0434,-0.0433,-0.0431,-0.0474,-0.0432,-0.0433,-0.0433,-0.0433,-0.0433,0,-0.0516,-0.0513,-0.0503,-0.0493,-0.0484,-0.049,-0.0483,-0.0475,-0.0462,-0.0456,-0.0446,-0.0431,-0.0419,-0.0416,-0.0405,-0.0396,-0.0399,-0.0393,-0.0394,-0.0393,-0.0426,-0.0431,-0.0391,-0.0391,-0.0391,-0.0391,-0.0391,-0.0391,-0.0496,-0.0479,-0.0479,-0.0459,-0.0456,-0.0442,-0.0437,-0.0431,-0.0425,-0.0408,-0.0398,-0.0396,-0.0391,-0.0379,-0.0368,-0.0367,-0.0363,-0.0356,-0.0357,-0.0387,-0.0391,-0.0395,-0.04,-0.0355,-0.0355,-0.0326,-0.0325,-0.0325]}]]